Orbital Elements at Epoch 2459000.5 (2020-May-31.0) TDB
Reference: JPL 14 (heliocentric ecliptic J2000)
Element | Value | Uncertainty (1-sigma) | Units |
e | .08777182501947439 | 4.9778e-08 | |
a | 3.242388533078649 | 4.5182e-08 | au |
q | 2.957798174108119 | 1.6237e-07 | au |
i | 19.70320378150468 | 5.7246e-06 | deg |
node | 76.06572280925164 | 1.6482e-05 | deg |
peri | 10.05787535869182 | 3.8429e-05 | deg |
M | 260.9678806482095 | 3.4164e-05 | deg |
tp | 2459587.137176435719 (2022-Jan-07.63717644) | 0.0002058 | TDB |
period | 2132.534221212146 5.84 | 4.4575e-05 1.22e-07 | d yr |
n | .1688132347040948 | 3.5286e-09 | deg/d |
Q | 3.526978892049178 | 4.9148e-08 | au |
|
| | Orbit Determination Parameters
Additional Information
|